Flag Weather past 2 weeks in Honolulu, Hawaii, U.S.A.

Now
72 °F

Scattered clouds.


Feels Like: 76 °F
Forecast: 68 / 76 °F
Wind: 6 mph from North

Location: Honolulu International Airport

Current Time: Nov 26, 2014 at 7:54:59 AM

Latest Report: Nov 26, 2014 at 6:53 AM


Visibility: 10 mi

Pressure: 30.06 "Hg

Humidity: 61%

Dew point: 58 °F

Location of HonoluluLocation

Historic Weather in Honolulu — Graph

°F

Honolulu temperature yesterday

Maximum temperature yesterday: 81 °F (at 12:53 PM)
Minimum temperature yesterday: 70 °F (at 6:53 AM)
Average temperature yesterday: 75 °F

Past Weeks' High & Low Weather Summary

 TemperatureHumidityPressure
High86 °F (Nov 20, 1:53 PM)97% (Nov 14, 11:53 PM)30.14 "Hg (Nov 14, 11:53 PM)
Low67 °F (Nov 11, 5:53 AM)46% (Nov 17, 1:53 PM)29.80 "Hg (Nov 15, 2:53 PM)
Average77 °F70%29.97 "Hg
* Reported Nov 11 5:53 AM — Nov 26 5:53 AM, Honolulu, Weather by CustomWeather, © 2014

Note: Actual official high and low records may vary slightly from our data, if they occured in-between our weather recording intervals... More about our weather records

Advertising

Honolulu weather history for previous 24 hours

 ConditionsComfort  
Time TempWeatherWind HumidityBarometerVisibility
5:53 AM
Nov 26
72 °FPassing clouds.8 mph64%30.03 "Hg10 mi
4:53 AM72 °FPassing clouds.6 mph64%30.02 "Hg10 mi
3:53 AM72 °FPassing clouds.7 mph64%30.01 "Hg10 mi
2:53 AM72 °FPassing clouds.7 mph64%30.01 "Hg10 mi
1:53 AM73 °FPassing clouds.5 mph62%30.03 "Hg10 mi
12:53 AM73 °FPassing clouds.7 mph62%30.04 "Hg10 mi
11:53 PM
Nov 25
72 °FPassing clouds.8 mph61%30.05 "Hg10 mi
10:53 PM73 °FPassing clouds.9 mph62%30.05 "Hg10 mi
9:53 PM72 °FPassing clouds.5 mph68%30.06 "Hg10 mi
8:53 PM73 °FPassing clouds.10 mph64%30.06 "Hg10 mi
7:53 PM73 °FPassing clouds.8 mph62%30.05 "Hg10 mi
6:53 PM74 °FPassing clouds.12 mph60%30.02 "Hg10 mi
5:53 PM74 °FPassing clouds.9 mph60%30.00 "Hg10 mi
4:53 PM76 °FScattered clouds.10 mph58%29.98 "Hg10 mi
3:53 PM78 °FScattered clouds.16 mph54%29.97 "Hg10 mi
2:53 PM79 °FScattered clouds.20 mph54%29.96 "Hg10 mi
1:53 PM80 °FScattered clouds.13 mph52%29.96 "Hg10 mi
12:53 PM81 °FScattered clouds.14 mph47%29.98 "Hg10 mi
11:53 AM80 °FScattered clouds.16 mph49%30.00 "Hg10 mi
10:53 AM80 °FScattered clouds.14 mph51%30.02 "Hg10 mi
9:53 AM77 °FScattered clouds.10 mph56%30.03 "Hg10 mi
8:53 AM75 °FBroken clouds.5 mph58%30.04 "Hg10 mi
7:53 AM72 °FBroken clouds.5 mph64%30.03 "Hg10 mi
Weather by CustomWeather, © 2014

See weather overviewHow to use our weather pages